GW2986 Weather Reports


Display with metric or nautical units.
time (UTC)temp
F
wind
direction
speed
MPH
gust
MPH
rain 1hr
in
rain 24hr
in
rain mn
in
humidity
%
barometer
mb
20260504220007 68 225 7.0 15.0 0.00 0.00 0.00 29 1004.0
20260504214555 70 262 7.0 15.0 0.00 0.00 0.00 27 1003.8
20260504213054 69 104 2.0 13.0 0.00 0.00 0.00 29 1003.8
20260504211557 69 165 8.0 12.0 0.00 0.00 0.00 28 1004.0
20260504210100 69 200 5.0 11.0 0.00 0.00 0.00 28 1004.2
20260504204551 69 208 7.0 15.0 0.00 0.00 0.00 28 1004.2
20260504201547 67 194 2.0 10.0 0.00 0.00 0.00 30 1004.3
20260504200052 68 173 3.0 11.0 0.00 0.00 0.00 29 1004.4
20260504194540 68 195 5.0 12.0 0.00 0.00 0.00 29 1004.5
20260504191540 68 238 4.0 14.0 0.00 0.00 0.00 29 1004.6
20260504190040 68 197 6.0 17.0 0.00 0.00 0.00 29 1004.7
20260504184540 68 246 5.0 13.0 0.00 0.00 0.00 29 1004.8
20260504181515 68 243 4.0 12.0 0.00 0.00 0.00 29 1004.8
20260504180012 68 190 7.0 14.0 0.00 0.00 0.00 30 1004.6
20260504174556 67 225 7.0 15.0 0.00 0.00 0.00 31 1004.5
20260504173050 66 221 6.0 13.0 0.00 0.00 0.00 32 1004.5
20260504171536 65 232 8.0 15.0 0.00 0.00 0.00 34 1004.3
20260504081512 47 110 6.0 9.0 0.00 0.00 0.00 60 1003.8
20260504044517 54 261 0.0 0.0 0.00 0.00 0.00 51 1004.6
20260504043013 54 263 0.0 0.0 0.00 0.00 0.00 51 1004.8
20260504041559 56 263 0.0 3.0 0.00 0.00 0.00 47 1004.9
20260504040059 57 261 0.0 0.0 0.00 0.00 0.00 45 1005.0
20260504034558 58 263 0.0 0.0 0.00 0.00 0.00 44 1005.0
20260504033116 58 263 0.0 1.0 0.00 0.00 0.00 43 1005.0
20260504031559 59 263 0.0 0.0 0.00 0.00 0.00 43 1004.9
20260504030115 61 263 0.0 0.0 0.00 0.00 0.00 37 1004.7
20260504024557 63 263 0.0 0.0 0.00 0.00 0.00 33 1004.6
20260504023057 64 262 0.0 0.0 0.00 0.00 0.00 32 1004.5
20260504021548 64 263 0.0 1.0 0.00 0.00 0.00 33 1004.5
20260504020044 66 262 0.0 0.0 0.00 0.00 0.00 32 1004.2
20260504014544 67 263 0.0 4.0 0.00 0.00 0.00 29 1004.0
20260504013050 67 261 3.0 7.0 0.00 0.00 0.00 29 1004.0
20260504011543 67 262 5.0 10.0 0.00 0.00 0.00 29 1004.0
20260504010052 67 256 7.0 14.0 0.00 0.00 0.00 29 1004.5
20260504004545 67 336 13.0 23.0 0.00 0.00 0.00 31 1004.6
20260504003042 67 161 12.0 17.0 0.00 0.00 0.00 30 1004.5
20260504001531 68 226 7.0 15.0 0.00 0.00 0.00 29 1004.5
20260504000020 74 44 2.0 6.0 0.00 0.00 0.00 18 1003.6
20260503234502 77 353 1.0 5.0 0.00 0.00 0.00 17 1003.4
20260503233109 79 280 1.0 5.0 0.00 0.00 0.00 16 1003.7
20260503231558 76 72 1.0 8.0 0.00 0.00 0.00 17 1003.7
20260503230056 76 323 0.0 8.0 0.00 0.00 0.00 17 1003.9
20260503224539 76 284 0.0 5.0 0.00 0.00 0.00 18 1003.8
20260503223028 74 284 0.0 5.0 0.00 0.00 0.00 19 1004.0
20260503221531 76 8 2.0 5.0 0.00 0.00 0.00 18 1004.2